Change the Weather History Date:

Thursday, April 3, 2014

  Actual Average Record
Temperature  
Mean Temperature 56 °F 49 °F  
Max Temperature 65 °F 59 °F 86 °F (1963)
Min Temperature 46 °F 39 °F 24 °F (1924)
Degree Days  
Heating Degree Days 9 16  
Month to date heating degree days 42 49  
Since 1 July heating degree days 4717 4355  
Cooling Degree Days 0 0  
Month to date cooling degree days 0 0  
Year to date cooling degree days 0 1  
Growing Degree Days 6 (Base 50)    
Moisture  
Dew Point 37 °F    
Average Humidity 53    
Maximum Humidity 86    
Minimum Humidity 20    
Precipitation  
Precipitation 0.07 in 0.13 in 2.05 in (1901)
Month to date precipitation 0.07 0.40  
Year to date precipitation 12.47 10.01  
Snow  
Snow 0.00 in 0.10 in 0.00 in (1894)
Month to date snowfall 0.0 0.1  
Since 1 July snowfall 56.1 20.0  
Snow Depth 0.00 in    
Sea Level Pressure  
Sea Level Pressure 30.07 in    
Wind  
Wind Speed 7 mph (ENE)    
Max Wind Speed 16 mph    
Max Gust Speed 19 mph    
Visibility 10 miles    
Events Rain    
T = Trace of Precipitation, MM = Missing Value Source: NWS Daily Summary

Daily Weather History Graph

Daily Weather History Graph

Search for Another Location

Airport or City:

Trip Planner

Search our weather history database for the weather conditions in past years. The results will help you decide how hot, cold, wet, or windy it might be!

Date:

Astronomy

Apr. 03, 2014 Rise Set
Actual Time 6:43 AM EDT 7:28 PM EDT
Civil Twilight 6:16 AM EDT 7:55 PM EDT
Nautical Twilight 5:44 AM EDT 8:28 PM EDT
Astronomical Twilight 5:10 AM EDT 9:01 PM EDT
Moon 9:11 AM EDT (4/3) 11:45 PM EDT (4/3)
Length of Visible Light 13h 39m
Length of Day
12h 45m
Waxing Crescent, 17% of the Moon is Illuminated
Apr 3
Waxing Crescent
Apr 7
First Quarter
Apr 15
Full
Apr 22
Last Quarter
Apr 29
New

Hourly Weather History & Observations

Time (EDT) Temp. Windchill Dew Point Humidity Pressure Visibility Wind Dir Wind Speed Gust Speed Precip Events Conditions
12:51 AM 48.9 °F - 44.1 °F 83% 30.09 in 10.0 mi Calm Calm - N/A   Overcast
1:51 AM 48.0 °F - 44.1 °F 86% 30.08 in 10.0 mi NNW 3.5 mph - N/A   Overcast
2:51 AM 48.9 °F - 45.0 °F 86% 30.09 in 10.0 mi NW 5.8 mph - 0.00 in Rain Light Rain
3:51 AM 51.1 °F - 45.0 °F 80% 30.09 in 10.0 mi West 3.5 mph - 0.00 in   Overcast
4:51 AM 50.0 °F - 46.0 °F 86% 30.11 in 10.0 mi NNE 4.6 mph - 0.00 in Rain Light Rain
5:51 AM 48.9 °F - 44.1 °F 83% 30.09 in 10.0 mi NNE 5.8 mph - 0.00 in   Scattered Clouds
6:51 AM 50.0 °F - 43.0 °F 77% 30.10 in 10.0 mi North 8.1 mph - N/A   Overcast
7:51 AM 53.1 °F - 34.0 °F 48% 30.12 in 10.0 mi NNE 10.4 mph - N/A   Overcast
8:51 AM 55.0 °F - 28.9 °F 37% 30.12 in 10.0 mi NNE 13.8 mph - N/A   Overcast
9:51 AM 59.0 °F - 23.0 °F 25% 30.12 in 10.0 mi NE 15.0 mph - N/A   Mostly Cloudy
10:51 AM 60.1 °F - 23.0 °F 24% 30.12 in 10.0 mi ENE 12.7 mph - N/A   Scattered Clouds
11:51 AM 61.0 °F - 21.0 °F 21% 30.11 in 10.0 mi NE 10.4 mph - N/A   Overcast
12:51 PM 62.1 °F - 21.0 °F 21% 30.10 in 10.0 mi ENE 8.1 mph - N/A   Overcast
1:51 PM 62.6 °F - 26.6 °F 26% 30.09 in 10.0 mi Calm Calm - N/A   Overcast
2:51 PM 63.0 °F - 28.9 °F 28% 30.05 in 10.0 mi East 3.5 mph - N/A   Overcast
3:51 PM 64.0 °F - 32.0 °F 30% 30.04 in 10.0 mi Variable 3.5 mph - N/A   Mostly Cloudy
4:51 PM 57.0 °F - 43.0 °F 59% 30.04 in 10.0 mi South 9.2 mph - N/A   Overcast
5:51 PM 53.1 °F - 44.1 °F 71% 30.02 in 10.0 mi SSE 11.5 mph - 0.00 in Rain Light Rain
6:51 PM 53.1 °F - 44.1 °F 71% 29.97 in 10.0 mi SE 10.4 mph - 0.00 in   Overcast
7:51 PM 52.0 °F - 41.0 °F 66% 29.99 in 10.0 mi SW 3.5 mph - N/A   Overcast
8:51 PM 51.1 °F - 39.9 °F 66% 30.00 in 10.0 mi South 8.1 mph - N/A   Overcast
9:51 PM 50.0 °F - 39.9 °F 68% 30.04 in 10.0 mi Calm Calm - 0.00 in Rain Light Rain
10:51 PM 48.9 °F - 42.1 °F 77% 30.07 in 7.0 mi SSW 3.5 mph - 0.02 in Rain Light Rain
11:51 PM 46.0 °F 42.5 °F 42.1 °F 86% 30.04 in 8.0 mi SE 6.9 mph - 0.05 in Rain Light Rain